Weather History for Lafayette, LA

Change the Weather History Date:

Tuesday, December 10, 2013

  Actual Average Record
Temperature  
Mean Temperature 42 °F 55 °F  
Max Temperature 49 °F 65 °F 82 °F (1939)
Min Temperature 35 °F 45 °F 17 °F (1917)
Degree Days  
Heating Degree Days 23 11  
Month to date heating degree days 118 99  
Since 1 July heating degree days 387 298  
Moisture  
Dew Point 33 °F    
Average Humidity 77    
Maximum Humidity 100    
Minimum Humidity 54    
Precipitation  
Precipitation T in 0.18 in 2.63 in (1936)
Month to date precipitation 1.18 1.72  
Year to date precipitation 54.95 56.64  
Snow  
Snow 0.00 in 0.00 in 0.00 in ()
Month to date snowfall 0.0 0.0  
Since 1 July snowfall 0.0 0.0  
Snow Depth 0.00 in    
Sea Level Pressure  
Sea Level Pressure 30.33 in    
Wind  
Wind Speed 13 mph (North)    
Max Wind Speed 26 mph    
Max Gust Speed 33 mph    
Visibility 10 miles    
Events      
T = Trace of Precipitation, MM = Missing Value Source: NWS Daily Summary

Daily Weather History Graph

Daily Weather History Graph

Search for Another Location

Airport:

Trip Planner

Search our weather history database for the weather conditions in past years. The results will help you decide how hot, cold, wet, or windy it might be!

Date:

Astronomy

Dec. 10, 2013 Rise Set
Actual Time 6:53 AM CST 5:08 PM CST
Civil Twilight 6:27 AM CST 5:34 PM CST
Nautical Twilight 5:57 AM CST 6:04 PM CST
Astronomical Twilight 5:28 AM CST 6:33 PM CST
Moon 12:48 PM CST (12/10) 12:36 AM CST (12/10)
Length of Visible Light 11h 07m
Length of Day
10h 14m
Waxing Gibbous, 62% of the Moon is Illuminated
Dec 10
Waxing Gibbous
Dec 17
Full
Dec 25
Last Quarter
Jan 1
New
Jan 7
First Quarter

Hourly Weather History & Observations

Time (CST) Temp. Windchill Dew Point Humidity Pressure Visibility Wind Dir Wind Speed Gust Speed Precip Events Conditions
12:53 AM 39.0 °F 33.4 °F 37.9 °F 96% 30.22 in 9.0 mi North 8.1 mph - 0.00 in   Overcast
1:53 AM 39.0 °F 31.4 °F 37.0 °F 93% 30.23 in 10.0 mi North 12.7 mph - 0.00 in   Overcast
2:53 AM 37.9 °F 29.2 °F 36.0 °F 93% 30.26 in 10.0 mi North 15.0 mph 23.0 mph N/A   Overcast
3:53 AM 37.9 °F 30.5 °F 36.0 °F 93% 30.26 in 10.0 mi North 11.5 mph - N/A   Overcast
4:03 AM 37.4 °F 29.8 °F 35.6 °F 93% 30.26 in 10.0 mi North 11.5 mph - N/A   Overcast
4:22 AM 37.4 °F 29.3 °F 35.6 °F 93% 30.27 in 10.0 mi North 12.7 mph 21.9 mph N/A   Mostly Cloudy
4:53 AM 37.9 °F 28.5 °F 35.1 °F 89% 30.29 in 10.0 mi North 17.3 mph 21.9 mph N/A   Overcast
5:53 AM 37.0 °F 26.7 °F 33.1 °F 86% 30.32 in 10.0 mi North 19.6 mph 28.8 mph N/A   Overcast
6:53 AM 37.0 °F 26.4 °F 33.1 °F 86% 30.34 in 10.0 mi North 20.7 mph 31.1 mph N/A   Overcast
7:53 AM 36.0 °F 24.7 °F 33.1 °F 89% 30.38 in 10.0 mi North 21.9 mph 31.1 mph N/A   Overcast
8:33 AM 37.4 °F 26.6 °F 30.2 °F 75% 30.39 in 10.0 mi North 21.9 mph 27.6 mph N/A   Overcast
8:53 AM 37.0 °F 27.0 °F 30.9 °F 79% 30.40 in 10.0 mi North 18.4 mph 28.8 mph N/A   Overcast
9:20 AM 37.4 °F 26.9 °F 30.2 °F 75% 30.40 in 10.0 mi North 20.7 mph 32.2 mph N/A   Partly Cloudy
9:53 AM 39.9 °F 30.0 °F 30.9 °F 70% 30.40 in 10.0 mi NNE 21.9 mph 27.6 mph N/A   Partly Cloudy
10:53 AM 41.0 °F 31.6 °F 32.0 °F 70% 30.39 in 10.0 mi NNE 20.7 mph 25.3 mph N/A   Scattered Clouds
11:53 AM 44.1 °F 36.8 °F 32.0 °F 63% 30.36 in 10.0 mi NNE 16.1 mph 25.3 mph N/A   Clear
12:53 PM 46.0 °F 38.5 °F 33.1 °F 61% 30.33 in 10.0 mi North 19.6 mph 23.0 mph N/A   Clear
1:53 PM 48.0 °F - 34.0 °F 58% 30.31 in 10.0 mi North 16.1 mph - N/A   Clear
2:53 PM 48.0 °F - 33.1 °F 56% 30.32 in 10.0 mi NNE 13.8 mph 23.0 mph N/A   Clear
3:53 PM 48.0 °F - 32.0 °F 54% 30.32 in 10.0 mi North 16.1 mph - N/A   Clear
4:53 PM 45.0 °F 39.7 °F 32.0 °F 60% 30.33 in 10.0 mi NNE 10.4 mph - N/A   Clear
5:53 PM 42.1 °F 37.7 °F 32.0 °F 67% 30.35 in 10.0 mi NNE 6.9 mph - N/A   Clear
6:53 PM 39.9 °F 36.7 °F 32.0 °F 73% 30.36 in 10.0 mi North 4.6 mph - N/A   Clear
7:53 PM 39.0 °F 35.7 °F 32.0 °F 76% 30.36 in 10.0 mi North 4.6 mph - N/A   Clear
8:53 PM 37.9 °F 33.5 °F 32.0 °F 79% 30.36 in 10.0 mi NNE 5.8 mph - N/A   Clear
9:53 PM 37.0 °F 33.3 °F 30.9 °F 79% 30.37 in 10.0 mi NNE 4.6 mph - N/A   Clear
10:53 PM 36.0 °F 32.1 °F 32.0 °F 86% 30.36 in 10.0 mi NE 4.6 mph - N/A   Clear
11:53 PM 36.0 °F - 32.0 °F 86% 30.36 in 10.0 mi Calm Calm - N/A   Clear